| time (UTC) | temp C | wind direction | speed KPH | gust KPH | rain 1hr cm | rain 24hr cm | rain mn cm | humidity % | barometer mb |
| 20260502152326 | 8 | 4 | 12.9 | 22.5 | 0.00 | 0.00 | 0.00 | 46 | |
| 20260502151825 | 7 | 348 | 17.7 | 29.0 | 0.00 | 0.00 | 0.00 | 50 | |
| 20260502151324 | 7 | 358 | 16.1 | 33.8 | 0.00 | 0.00 | 0.00 | 48 | |
| 20260502150823 | 8 | 355 | 17.7 | 40.2 | 0.00 | 0.00 | 0.00 | 48 | |
| 20260502150322 | 8 | 354 | 19.3 | 35.4 | 0.00 | 0.00 | 0.00 | 47 | |
| 20260502130257 | 5 | 10 | 11.3 | 22.5 | 0.00 | 0.00 | 0.00 | 69 | |
| 20260502123813 | 5 | 358 | 8.0 | 24.1 | 0.00 | 0.00 | 0.00 | 75 | |
| 20260502123252 | 4 | 6 | 9.7 | 17.7 | 0.00 | 0.00 | 0.00 | 76 | |
| 20260502122750 | 4 | 18 | 8.0 | 17.7 | 0.00 | 0.00 | 0.00 | 77 | |
| 20260502122249 | 3 | 3 | 8.0 | 14.5 | 0.00 | 0.00 | 0.00 | 79 | |
| 20260502121748 | 3 | 350 | 14.5 | 20.9 | 0.00 | 0.00 | 0.00 | 80 | |
| 20260502121247 | 3 | 348 | 12.9 | 25.7 | 0.00 | 0.00 | 0.00 | 82 | |
| 20260502120746 | 3 | 357 | 19.3 | 27.4 | 0.00 | 0.00 | 0.00 | 84 | |
| 20260502120245 | 3 | 10 | 11.3 | 22.5 | 0.00 | 0.00 | 0.00 | 85 | |
| 20260502115745 | 3 | 338 | 8.0 | 17.7 | 0.00 | 0.00 | 0.00 | 85 | |
| 20260502115244 | 2 | 355 | 6.4 | 12.9 | 0.00 | 0.00 | 0.00 | 85 | |
| 20260502114743 | 2 | 354 | 11.3 | 19.3 | 0.00 | 0.00 | 0.00 | 85 | |
| 20260502114302 | 2 | 353 | 9.7 | 20.9 | 0.00 | 0.00 | 0.00 | 87 | |
| 20260502113741 | 2 | 355 | 8.0 | 16.1 | 0.00 | 0.00 | 0.00 | 88 | |
| 20260502113239 | 2 | 356 | 6.4 | 16.1 | 0.00 | 0.00 | 0.00 | 89 | |
| 20260502112738 | 1 | 2 | 6.4 | 11.3 | 0.00 | 0.00 | 0.00 | 91 | |
| 20260502112237 | 1 | 4 | 3.2 | 9.7 | 0.00 | 0.00 | 0.00 | 91 | |
| 20260502111736 | 1 | 9 | 0.0 | 4.8 | 0.00 | 0.00 | 0.00 | 91 | |
| 20260502111236 | 1 | 277 | 0.0 | 0.0 | 0.00 | 0.00 | 0.00 | 90 | |
| 20260502110734 | 1 | 275 | 0.0 | 0.0 | 0.00 | 0.00 | 0.00 | 90 | |
| 20260502110254 | 1 | 274 | 0.0 | 0.0 | 0.00 | 0.00 | 0.00 | 90 | |
| 20260502105753 | 1 | 274 | 0.0 | 0.0 | 0.00 | 0.00 | 0.00 | 90 | |
| 20260502105253 | 1 | 274 | 0.0 | 0.0 | 0.00 | 0.00 | 0.00 | 89 | |
| 20260502104752 | 1 | 274 | 0.0 | 0.0 | 0.00 | 0.00 | 0.00 | 89 | |
| 20260502104229 | 1 | 274 | 0.0 | 0.0 | 0.00 | 0.00 | 0.00 | 89 | |
| 20260502103728 | 1 | 274 | 0.0 | 0.0 | 0.00 | 0.00 | 0.00 | 89 | |
| 20260502103227 | 1 | 274 | 0.0 | 0.0 | 0.00 | 0.00 | 0.00 | 88 | |
| 20260502102726 | 1 | 257 | 0.0 | 0.0 | 0.00 | 0.00 | 0.00 | 88 | |
| 20260502102226 | 1 | 244 | 0.0 | 0.0 | 0.00 | 0.00 | 0.00 | 88 | |
| 20260502101726 | 1 | 244 | 0.0 | 0.0 | 0.00 | 0.00 | 0.00 | 88 | |
| 20260502101223 | 1 | 244 | 0.0 | 0.0 | 0.00 | 0.00 | 0.00 | 87 | |
| 20260502100722 | 1 | 244 | 0.0 | 0.0 | 0.00 | 0.00 | 0.00 | 87 | |
| 20260502100221 | 1 | 244 | 0.0 | 0.0 | 0.00 | 0.00 | 0.00 | 87 | |
| 20260502091232 | 2 | 244 | 0.0 | 0.0 | 0.00 | 0.00 | 0.00 | 84 | |
| 20260502090731 | 2 | 244 | 0.0 | 0.0 | 0.00 | 0.00 | 0.00 | 84 | |
| 20260502090209 | 2 | 244 | 0.0 | 0.0 | 0.00 | 0.00 | 0.00 | 84 | |
| 20260502071146 | 2 | 149 | 0.0 | 0.0 | 0.00 | 0.00 | 0.00 | 81 | |
| 20260502070646 | 2 | 160 | 1.6 | 11.3 | 0.00 | 0.00 | 0.00 | 80 | |
| 20260502070145 | 2 | 162 | 3.2 | 9.7 | 0.00 | 0.00 | 0.00 | 80 | |
| 20260502065644 | 2 | 161 | 4.8 | 11.3 | 0.00 | 0.00 | 0.00 | 80 | |
| 20260502065143 | 2 | 176 | 1.6 | 8.0 | 0.00 | 0.00 | 0.00 | 80 | |
| 20260502064643 | 2 | 167 | 1.6 | 6.4 | 0.00 | 0.00 | 0.00 | 79 | |
| 20260502064141 | 2 | 165 | 1.6 | 6.4 | 0.00 | 0.00 | 0.00 | 79 | |
| 20260502063640 | 2 | 179 | 3.2 | 12.9 | 0.00 | 0.00 | 0.00 | 79 | |
| 20260502063139 | 2 | 186 | 1.6 | 11.3 | 0.00 | 0.00 | 0.00 | 79 | |
| 20260502062659 | 2 | 174 | 1.6 | 11.3 | 0.00 | 0.00 | 0.00 | 79 | |
| 20260502062137 | 2 | 175 | 1.6 | 11.3 | 0.00 | 0.00 | 0.00 | 78 | |
| 20260502061635 | 2 | 184 | 3.2 | 11.3 | 0.00 | 0.00 | 0.00 | 78 | |
| 20260502061135 | 2 | 180 | 1.6 | 9.7 | 0.00 | 0.00 | 0.00 | 78 | |
| 20260502060633 | 2 | 158 | 0.0 | 6.4 | 0.00 | 0.00 | 0.00 | 78 | |
| 20260502060133 | 2 | 158 | 4.8 | 9.7 | 0.00 | 0.00 | 0.00 | 77 | |
| 20260502055653 | 3 | 167 | 6.4 | 12.9 | 0.00 | 0.00 | 0.00 | 77 | |
| 20260502055131 | 3 | 175 | 1.6 | 9.7 | 0.00 | 0.00 | 0.00 | 77 | |
| 20260502054630 | 3 | 150 | 3.2 | 14.5 | 0.00 | 0.00 | 0.00 | 77 | |
| 20260502054149 | 3 | 133 | 3.2 | 11.3 | 0.00 | 0.00 | 0.00 | 77 | |
| 20260502053628 | 3 | 151 | 4.8 | 11.3 | 0.00 | 0.00 | 0.00 | 77 | |
| 20260502053127 | 3 | 147 | 1.6 | 9.7 | 0.00 | 0.00 | 0.00 | 77 | |
| 20260502052626 | 3 | 154 | 3.2 | 11.3 | 0.00 | 0.00 | 0.00 | 77 | |
| 20260502052125 | 3 | 110 | 0.0 | 4.8 | 0.00 | 0.00 | 0.00 | 78 | |
| 20260502051624 | 3 | 164 | 3.2 | 9.7 | 0.00 | 0.00 | 0.00 | 78 | |
| 20260502051123 | 3 | 160 | 1.6 | 9.7 | 0.00 | 0.00 | 0.00 | 78 | |
| 20260502050622 | 3 | 158 | 1.6 | 8.0 | 0.00 | 0.00 | 0.00 | 78 | |
| 20260502050120 | 3 | 158 | 1.6 | 6.4 | 0.00 | 0.00 | 0.00 | 77 | |
| 20260502045620 | 3 | 168 | 3.2 | 9.7 | 0.00 | 0.00 | 0.00 | 77 | |
| 20260502045140 | 3 | 153 | 1.6 | 11.3 | 0.00 | 0.00 | 0.00 | 78 | |
| 20260502044639 | 3 | 168 | 1.6 | 9.7 | 0.00 | 0.00 | 0.00 | 78 | |
| 20260502044117 | 3 | 155 | 3.2 | 11.3 | 0.00 | 0.00 | 0.00 | 78 | |
| 20260502043615 | 3 | 150 | 4.8 | 12.9 | 0.00 | 0.00 | 0.00 | 78 | |
| 20260502043114 | 3 | 129 | 1.6 | 8.0 | 0.00 | 0.00 | 0.00 | 78 | |
| 20260502042635 | 3 | 160 | 4.8 | 16.1 | 0.00 | 0.00 | 0.00 | 78 | |
| 20260502042113 | 3 | 170 | 4.8 | 11.3 | 0.00 | 0.00 | 0.00 | 78 | |
| 20260502041612 | 3 | 160 | 6.4 | 16.1 | 0.00 | 0.00 | 0.00 | 78 | |
| 20260502041110 | 3 | 156 | 3.2 | 14.5 | 0.00 | 0.00 | 0.00 | 79 | |
| 20260502040610 | 3 | 146 | 4.8 | 14.5 | 0.00 | 0.00 | 0.00 | 79 | |
| 20260502040109 | 3 | 135 | 6.4 | 22.5 | 0.00 | 0.00 | 0.00 | 78 | |
| 20260502035608 | 3 | 145 | 8.0 | 14.5 | 0.00 | 0.00 | 0.00 | 78 | |
| 20260502035106 | 3 | 137 | 4.8 | 12.9 | 0.00 | 0.00 | 0.00 | 78 | |
| 20260502034606 | 3 | 148 | 8.0 | 19.3 | 0.00 | 0.00 | 0.00 | 78 | |
| 20260502034104 | 3 | 143 | 11.3 | 24.1 | 0.00 | 0.00 | 0.00 | 77 | |
| 20260502033604 | 3 | 126 | 8.0 | 17.7 | 0.00 | 0.00 | 0.00 | 76 | |
| 20260502033103 | 3 | 122 | 11.3 | 24.1 | 0.00 | 0.00 | 0.00 | 74 | |
| 20260502032602 | 3 | 119 | 4.8 | 19.3 | 0.00 | 0.00 | 0.00 | 73 | |
| 20260502032100 | 4 | 123 | 6.4 | 22.5 | 0.00 | 0.00 | 0.00 | 72 | |
| 20260502031559 | 4 | 102 | 3.2 | 12.9 | 0.00 | 0.00 | 0.00 | 71 | |
| 20260502031058 | 4 | 104 | 3.2 | 14.5 | 0.00 | 0.00 | 0.00 | 69 | |
| 20260502030557 | 4 | 95 | 3.2 | 17.7 | 0.00 | 0.00 | 0.00 | 70 | |
| 20260502030117 | 5 | 99 | 1.6 | 12.9 | 0.00 | 0.00 | 0.00 | 69 | |
| 20260502025616 | 5 | 109 | 3.2 | 19.3 | 0.00 | 0.00 | 0.00 | 68 | |
| 20260502025055 | 5 | 87 | 8.0 | 24.1 | 0.00 | 0.00 | 0.00 | 67 | |
| 20260502024554 | 5 | 93 | 6.4 | 17.7 | 0.00 | 0.00 | 0.00 | 67 | |
| 20260502024053 | 5 | 50 | 8.0 | 24.1 | 0.00 | 0.00 | 0.00 | 66 | |
| 20260502023551 | 5 | 6 | 17.7 | 32.2 | 0.00 | 0.00 | 0.00 | 61 | |
| 20260502023050 | 6 | 2 | 9.7 | 14.5 | 0.00 | 0.00 | 0.00 | 60 | |
| 20260502022549 | 6 | 0 | 11.3 | 22.5 | 0.00 | 0.00 | 0.00 | 60 | |
| 20260502022048 | 6 | 10 | 11.3 | 27.4 | 0.00 | 0.00 | 0.00 | 61 | |
| 20260502021547 | 6 | 8 | 11.3 | 22.5 | 0.00 | 0.00 | 0.00 | 61 | |
| 20260502021046 | 6 | 351 | 12.9 | 20.9 | 0.00 | 0.00 | 0.00 | 60 | |
| 20260502020545 | 6 | 353 | 9.7 | 20.9 | 0.00 | 0.00 | 0.00 | 61 | |
| 20260502020045 | 6 | 348 | 8.0 | 24.1 | 0.00 | 0.00 | 0.00 | 60 | |
| 20260502015543 | 6 | 358 | 14.5 | 29.0 | 0.00 | 0.00 | 0.00 | 61 | |
| 20260502015042 | 6 | 358 | 14.5 | 30.6 | 0.00 | 0.00 | 0.00 | 62 | |
| 20260502014541 | 6 | 6 | 8.0 | 19.3 | 0.00 | 0.00 | 0.00 | 63 | |
| 20260502014041 | 6 | 342 | 11.3 | 22.5 | 0.00 | 0.00 | 0.00 | 62 | |
| 20260502013540 | 6 | 354 | 11.3 | 19.3 | 0.00 | 0.00 | 0.00 | 63 | |
| 20260502013038 | 6 | 354 | 9.7 | 17.7 | 0.00 | 0.00 | 0.00 | 64 | |
| 20260502012537 | 6 | 353 | 6.4 | 16.1 | 0.00 | 0.00 | 0.00 | 64 | |
| 20260502012036 | 6 | 338 | 4.8 | 14.5 | 0.00 | 0.00 | 0.00 | 63 | |
| 20260502011535 | 6 | 354 | 8.0 | 16.1 | 0.00 | 0.00 | 0.00 | 63 | |
| 20260502011034 | 6 | 351 | 6.4 | 14.5 | 0.00 | 0.00 | 0.00 | 63 | |
| 20260502010533 | 6 | 356 | 6.4 | 14.5 | 0.00 | 0.00 | 0.00 | 64 | |
| 20260502010032 | 6 | 1 | 9.7 | 17.7 | 0.00 | 0.00 | 0.00 | 63 | |
| 20260502005553 | 6 | 351 | 8.0 | 22.5 | 0.00 | 0.00 | 0.00 | 63 | |
| 20260502005030 | 6 | 353 | 11.3 | 19.3 | 0.00 | 0.00 | 0.00 | 62 | |
| 20260502004529 | 6 | 358 | 11.3 | 20.9 | 0.00 | 0.00 | 0.00 | 63 | |
| 20260502004029 | 6 | 3 | 9.7 | 20.9 | 0.00 | 0.00 | 0.00 | 64 | |
| 20260502003528 | 6 | 355 | 12.9 | 20.9 | 0.00 | 0.00 | 0.00 | 61 | |
| 20260502003047 | 6 | 356 | 17.7 | 27.4 | 0.00 | 0.00 | 0.00 | 61 | |
| 20260502002525 | 6 | 349 | 14.5 | 25.7 | 0.00 | 0.00 | 0.00 | 61 | |
| 20260502002024 | 6 | 354 | 9.7 | 24.1 | 0.00 | 0.00 | 0.00 | 62 | |
| 20260502001523 | 6 | 346 | 12.9 | 22.5 | 0.00 | 0.00 | 0.00 | 61 | |
| 20260502001022 | 6 | 352 | 11.3 | 27.4 | 0.00 | 0.00 | 0.00 | 61 | |
| 20260502000521 | 6 | 345 | 16.1 | 25.7 | 0.00 | 0.00 | 0.00 | 61 | |
| 20260502000020 | 6 | 4 | 16.1 | 32.2 | 0.00 | 0.00 | 0.00 | 61 | |
| 20260501235519 | 6 | 348 | 12.9 | 40.2 | 0.00 | 0.00 | 0.00 | 61 | |
| 20260501235018 | 6 | 358 | 12.9 | 20.9 | 0.00 | 0.00 | 0.00 | 60 | |
| 20260501234539 | 6 | 348 | 17.7 | 32.2 | 0.00 | 0.00 | 0.00 | 60 | |
| 20260501234016 | 6 | 351 | 14.5 | 24.1 | 0.00 | 0.00 | 0.00 | 60 | |
| 20260501233515 | 6 | 357 | 16.1 | 29.0 | 0.00 | 0.00 | 0.00 | 60 | |
| 20260501233035 | 6 | 349 | 16.1 | 27.4 | 0.00 | 0.00 | 0.00 | 61 | |
| 20260501232513 | 7 | 351 | 22.5 | 37.0 | 0.00 | 0.00 | 0.00 | 62 | |
| 20260501232012 | 7 | 14 | 14.5 | 25.7 | 0.00 | 0.00 | 0.00 | 61 | |
| 20260501231511 | 7 | 349 | 12.9 | 30.6 | 0.00 | 0.00 | 0.00 | 61 | |
| 20260501231010 | 7 | 3 | 16.1 | 30.6 | 0.00 | 0.00 | 0.00 | 62 | |
| 20260501230509 | 7 | 4 | 16.1 | 37.0 | 0.00 | 0.00 | 0.00 | 62 | |
| 20260501230008 | 7 | 352 | 12.9 | 25.7 | 0.00 | 0.00 | 0.00 | 61 | |
| 20260501225506 | 7 | 10 | 12.9 | 27.4 | 0.00 | 0.00 | 0.00 | 61 | |
| 20260501225006 | 7 | 12 | 9.7 | 25.7 | 0.00 | 0.00 | 0.00 | 61 | |
| 20260501224505 | 7 | 0 | 12.9 | 25.7 | 0.00 | 0.00 | 0.00 | 61 | |
| 20260501224004 | 7 | 352 | 17.7 | 32.2 | 0.00 | 0.00 | 0.00 | 60 | |
| 20260501223524 | 7 | 0 | 11.3 | 27.4 | 0.00 | 0.00 | 0.00 | 60 | |
| 20260501223002 | 7 | 0 | 20.9 | 37.0 | 0.00 | 0.00 | 0.00 | 61 | |
| 20260501222501 | 7 | 351 | 17.7 | 32.2 | 0.00 | 0.00 | 0.00 | 61 | |
| 20260501222000 | 7 | 356 | 19.3 | 35.4 | 0.00 | 0.00 | 0.00 | 62 | |
| 20260501221520 | 7 | 352 | 14.5 | 29.0 | 0.00 | 0.00 | 0.00 | 64 | |
| 20260501220958 | 7 | 0 | 19.3 | 40.2 | 0.00 | 0.00 | 0.00 | 65 | |
| 20260501220456 | 7 | 348 | 16.1 | 27.4 | 0.00 | 0.00 | 0.00 | 61 | |
| 20260501215955 | 7 | 348 | 16.1 | 37.0 | 0.00 | 0.00 | 0.00 | 57 | |
| 20260501215455 | 8 | 352 | 14.5 | 33.8 | 0.00 | 0.00 | 0.00 | 54 | |
| 20260501214954 | 8 | 338 | 11.3 | 25.7 | 0.00 | 0.00 | 0.00 | 52 | |
| 20260501214452 | 8 | 345 | 16.1 | 25.7 | 0.00 | 0.00 | 0.00 | 53 | |
| 20260501213952 | 8 | 354 | 16.1 | 30.6 | 0.00 | 0.00 | 0.00 | 53 | |
| 20260501213512 | 8 | 358 | 16.1 | 30.6 | 0.00 | 0.00 | 0.00 | 53 | |
| 20260501212950 | 8 | 346 | 17.7 | 29.0 | 0.00 | 0.00 | 0.00 | 54 | |
| 20260501212449 | 8 | 7 | 16.1 | 30.6 | 0.00 | 0.00 | 0.00 | 55 | |
| 20260501211948 | 8 | 359 | 20.9 | 37.0 | 0.00 | 0.00 | 0.00 | 54 | |
| 20260501211447 | 9 | 356 | 19.3 | 33.8 | 0.00 | 0.00 | 0.00 | 54 | |
| 20260501210946 | 9 | 343 | 14.5 | 33.8 | 0.00 | 0.00 | 0.00 | 54 | |
| 20260501210445 | 8 | 341 | 12.9 | 24.1 | 0.00 | 0.00 | 0.00 | 54 | |
| 20260501205944 | 8 | 351 | 12.9 | 29.0 | 0.00 | 0.00 | 0.00 | 55 | |
| 20260501205443 | 8 | 354 | 12.9 | 22.5 | 0.00 | 0.00 | 0.00 | 55 | |
| 20260501204941 | 8 | 323 | 11.3 | 22.5 | 0.00 | 0.00 | 0.00 | 53 | |
| 20260501204441 | 9 | 344 | 8.0 | 19.3 | 0.00 | 0.00 | 0.00 | 53 | |
| 20260501203940 | 9 | 1 | 16.1 | 24.1 | 0.00 | 0.00 | 0.00 | 53 | |
| 20260501203438 | 9 | 330 | 11.3 | 24.1 | 0.00 | 0.00 | 0.00 | 53 | |
| 20260501202938 | 9 | 5 | 11.3 | 27.4 | 0.00 | 0.00 | 0.00 | 53 | |
| 20260501202437 | 10 | 353 | 17.7 | 32.2 | 0.00 | 0.00 | 0.00 | 54 | |
| 20260501201935 | 9 | 359 | 9.7 | 19.3 | 0.00 | 0.00 | 0.00 | 58 | |
| 20260501201456 | 8 | 2 | 11.3 | 25.7 | 0.00 | 0.00 | 0.00 | 58 | |
| 20260501200934 | 8 | 3 | 17.7 | 32.2 | 0.00 | 0.00 | 0.00 | 56 | |
| 20260501200433 | 9 | 349 | 12.9 | 20.9 | 0.00 | 0.00 | 0.00 | 54 | |
| 20260501195932 | 9 | 341 | 11.3 | 22.5 | 0.00 | 0.00 | 0.00 | 52 | |
| 20260501195430 | 9 | 353 | 12.9 | 29.0 | 0.00 | 0.00 | 0.00 | 51 | |
| 20260501194929 | 10 | 4 | 19.3 | 30.6 | 0.00 | 0.00 | 0.00 | 51 | |
| 20260501194429 | 10 | 9 | 11.3 | 20.9 | 0.00 | 0.00 | 0.00 | 52 | |
| 20260501193948 | 9 | 350 | 14.5 | 24.1 | 0.00 | 0.00 | 0.00 | 53 | |
| 20260501193448 | 9 | 336 | 12.9 | 24.1 | 0.00 | 0.00 | 0.00 | 52 | |
| 20260501192926 | 8 | 4 | 11.3 | 29.0 | 0.00 | 0.00 | 0.00 | 54 | |
| 20260501192445 | 8 | 346 | 19.3 | 32.2 | 0.00 | 0.00 | 0.00 | 51 | |
| 20260501191923 | 9 | 353 | 17.7 | 33.8 | 0.00 | 0.00 | 0.00 | 52 | |
| 20260501191423 | 10 | 1 | 19.3 | 48.3 | 0.00 | 0.00 | 0.00 | 51 | |
| 20260501190943 | 10 | 10 | 14.5 | 32.2 | 0.00 | 0.00 | 0.00 | 51 | |
| 20260501190420 | 10 | 4 | 16.1 | 33.8 | 0.00 | 0.00 | 0.00 | 52 | |
| 20260501185920 | 10 | 342 | 17.7 | 35.4 | 0.00 | 0.00 | 0.00 | 50 | |
| 20260501185418 | 9 | 9 | 20.9 | 37.0 | 0.00 | 0.00 | 0.00 | 53 | |
| 20260501184939 | 9 | 4 | 22.5 | 45.1 | 0.00 | 0.00 | 0.00 | 53 | |
| 20260501184417 | 9 | 342 | 17.7 | 32.2 | 0.00 | 0.00 | 0.00 | 50 | |
| 20260501183936 | 10 | 346 | 22.5 | 35.4 | 0.00 | 0.00 | 0.00 | 51 | |
| 20260501183414 | 10 | 18 | 16.1 | 30.6 | 0.00 | 0.00 | 0.00 | 51 | |
| 20260501182914 | 10 | 28 | 17.7 | 37.0 | 0.00 | 0.00 | 0.00 | 51 | |
| 20260501182412 | 10 | 12 | 19.3 | 37.0 | 0.00 | 0.00 | 0.00 | 52 | |
| 20260501181933 | 10 | 15 | 14.5 | 35.4 | 0.00 | 0.00 | 0.00 | 52 | |
| 20260501181410 | 10 | 32 | 11.3 | 22.5 | 0.00 | 0.00 | 0.00 | 52 | |
| 20260501180930 | 9 | 6 | 17.7 | 30.6 | 0.00 | 0.00 | 0.00 | 55 | |
| 20260501180408 | 9 | 13 | 20.9 | 41.8 | 0.00 | 0.00 | 0.00 | 54 | |
| 20260501175908 | 8 | 7 | 14.5 | 29.0 | 0.00 | 0.00 | 0.00 | 54 | |
| 20260501175407 | 8 | 359 | 20.9 | 45.1 | 0.00 | 0.00 | 0.00 | 52 | |
| 20260501174906 | 10 | 1 | 24.1 | 37.0 | 0.00 | 0.00 | 0.00 | 48 | |
| 20260501174404 | 10 | 15 | 14.5 | 27.4 | 0.00 | 0.00 | 0.00 | 47 | |
| 20260501173904 | 10 | 10 | 12.9 | 22.5 | 0.00 | 0.00 | 0.00 | 48 | |
| 20260501173403 | 10 | 359 | 11.3 | 22.5 | 0.00 | 0.00 | 0.00 | 52 | |
| 20260501172901 | 9 | 2 | 12.9 | 25.7 | 0.00 | 0.00 | 0.00 | 53 | |
| 20260501172400 | 8 | 333 | 12.9 | 24.1 | 0.00 | 0.00 | 0.00 | 51 | |
| 20260501171921 | 8 | 5 | 9.7 | 22.5 | 0.00 | 0.00 | 0.00 | 55 | |
| 20260501171419 | 8 | 3 | 4.8 | 16.1 | 0.00 | 0.00 | 0.00 | 55 | |
| 20260501170857 | 8 | 351 | 3.2 | 11.3 | 0.00 | 0.00 | 0.00 | 53 | |
| 20260501170356 | 9 | 50 | 3.2 | 14.5 | 0.00 | 0.00 | 0.00 | 54 | |
| 20260501165855 | 9 | 8 | 9.7 | 17.7 | 0.00 | 0.00 | 0.00 | 54 | |
| 20260501165354 | 9 | 355 | 14.5 | 22.5 | 0.00 | 0.00 | 0.00 | 54 | |
| 20260501164853 | 9 | 345 | 9.7 | 24.1 | 0.00 | 0.00 | 0.00 | 55 | |
| 20260501164353 | 10 | 4 | 12.9 | 19.3 | 0.00 | 0.00 | 0.00 | 54 | |
| 20260501163851 | 11 | 3 | 8.0 | 17.7 | 0.00 | 0.00 | 0.00 | 53 | |
| 20260501163411 | 11 | 87 | 3.2 | 14.5 | 0.00 | 0.00 | 0.00 | 56 | |
| 20260501162849 | 10 | 11 | 8.0 | 19.3 | 0.00 | 0.00 | 0.00 | 59 | |
| 20260501162348 | 8 | 9 | 9.7 | 24.1 | 0.00 | 0.00 | 0.00 | 60 | |
| 20260501161847 | 8 | 350 | 9.7 | 17.7 | 0.00 | 0.00 | 0.00 | 60 | |
| 20260501161346 | 8 | 12 | 4.8 | 19.3 | 0.00 | 0.00 | 0.00 | 61 | |
| 20260501160845 | 8 | 51 | 6.4 | 17.7 | 0.00 | 0.00 | 0.00 | 64 | |
| 20260501160344 | 8 | 350 | 1.6 | 12.9 | 0.00 | 0.00 | 0.00 | 65 | |
| 20260501155843 | 8 | 84 | 4.8 | 14.5 | 0.00 | 0.00 | 0.00 | 67 | |
| 20260501155342 | 8 | 152 | 3.2 | 12.9 | 0.00 | 0.00 | 0.00 | 67 | |
| 20260501154841 | 9 | 164 | 4.8 | 17.7 | 0.00 | 0.00 | 0.00 | 66 | |
| 20260501154340 | 9 | 161 | 1.6 | 9.7 | 0.00 | 0.00 | 0.00 | 67 | |
| 20260501153840 | 9 | 125 | 4.8 | 19.3 | 0.00 | 0.00 | 0.00 | 67 |